Regional Weather Roundup
Issued by NWS Northern Indiana

Home | Current Version | Previous Version | Graphics & Text | Print | Product List | Glossary On
Versions: 1 2 3 4 5 6 7 8 9 10 11 12 13 14 15 16 17 18 19 20 21 22 23 24 25 26 27 28 29 30 31 32 33 34 35 36 37 38 39 40 41 42 43 44 45 46 47 48 49 50
000
ASUS43 KIWX 211601
RWRIWX

KIWX WEATHER ROUNDUP
NATIONAL WEATHER SERVICE NORTHERN INDIANA
1200 PM EDT SAT OCT 21 2017

NOTE: "FAIR" INDICATES FEW OR NO CLOUDS BELOW 12,000 FEET WITH NO
SIGNIFICANT WEATHER AND/OR OBSTRUCTIONS TO VISIBILITY.

* THESE STATIONS ARE NOT UNDER NWS QUALITY CONTROL. THEY ALSO MAY NOT
  REPORT WEATHER SUCH AS PRECIPITATION OR FOG.

INZ001>027-211700-
NORTHERN INDIANA

CITY           SKY/WX    TMP DP  RH WIND       PRES   REMARKS
GARY*          CLOUDY    68  48  49 S12       30.10S
SOUTH BEND     PTSUNNY   69  48  47 S16       30.15S
GOSHEN         MOSUNNY   68  47  46 S12       30.17S
MONTICELLO*    PTSUNNY   66  48  53 S7        30.15F
FORT WAYNE     PTSUNNY   68  52  56 SW10      30.21R
PERU/GRISSOM   MOSUNNY   68  49  50 S10       30.18S

$$
INZ028>050-211700-
CENTRAL INDIANA

CITY           SKY/WX    TMP DP  RH WIND       PRES   REMARKS
LAFAYETTE      MOSUNNY   65  51  60 S9        30.15S
KOKOMO*        PTSUNNY   67  51  56 S9        30.20R
MUNCIE*        PTSUNNY   70  50  49 S8        30.22S
INDIANAPOLIS   PTSUNNY   64  52  64 S6        30.20S

$$
MIZ043>046-050>051-056>058-064>065-071>073-077>080-211700-
SOUTHWEST LOWER MICHIGAN

CITY           SKY/WX    TMP DP  RH WIND       PRES   REMARKS
BATTLE CREEK   PTSUNNY   69  49  48 S12G20    30.17S
BENTON HARBOR    N/A     67  49  52 S13G20    30.11F
COLDWATER*     MOSUNNY   67  48  49 S6        30.19S
HILLSDALE*     PTSUNNY   64  50  59 S7        30.20F
HOLLAND        CLOUDY    68  49  50 S13       30.11F
GRAND RAPIDS   PTSUNNY   69  50  50 S16G24    30.13F
KALAMAZOO      PTSUNNY   66  49  54 S12       30.17F
STURGIS*       MOSUNNY   66  51  58 S10       30.17S
THREE RIVERS*  FAIR      67  51  55 S12       30.17S

$$
OHZ001>008-015>018-024>025-211700-
NORTHWEST OHIO

CITY           SKY/WX    TMP DP  RH WIND       PRES   REMARKS
DEFIANCE       CLOUDY    66  53  63 S8        30.21F
FINDLAY        CLOUDY    70  53  54 S10       30.23S
TOLEDO EXPRESS CLOUDY    69  56  62 SW8       30.22S
TOLEDO METCALF CLOUDY    70  54  56 S12       30.23F
LIMA           MOSUNNY   69  54  58 S12       30.23S

$$
AND FOR LAKE MICHIGAN COASTAL AND OPEN LAKE BUOY OBSERVATIONS

STATION/POSITION TEMP    WIND        PRES    VSBY  WAVE
                 AIR SEA DIR/SP/G                  HT/PER
                 (F)     (DEG/KT/KT) (MB)    (MI)  (FT/S)
CALUMET HARBOR    64     180/ 10/ 16 1018.1S
MICHIGAN CITY     66     170/ 10/ 13   N/A
BURNS HARBOR      67     180/ 16/ 22 1019.6F
SAINT JOSEPH      65     180/  3/  9 1020.7
SOUTH LAKE BUOY   62 61  170/ 19/ 25 1017.7          4/ 5
4 MI NW BRIDGMAN  63 59  170/ 14/ 17 1019.7F         2/ 3
MICHIGAN CITY     63 58  180/ 10/ 14   N/A           1/ 2

$$
&&



USA.gov is the U.S. government's official web portal to all federal, state and local government web resources and services.